Voltar ao catálogo

STARLINK-37381

AtivoComunicaçõesSSO
NORAD 68774·PAYLOAD·🇺🇸 United States

Lançado Apr 19, 2026 de Vandenberg Space Force Base

Loading…

Próximas Passagens (próximas 24 horas)

TLE

AtualizadoSource: CelesTrak SupGP

Época: Sep 15, 2026, 03:42 UTC

1 68774C 26086J   26258.15465278 -.00045489  00000+0 -14092-2 0  2582
2 68774  97.2840 293.6418 0000599 106.2310 286.9305 15.33528372    16

Acompanhe STARLINK-37381 em tempo real com AllMySat

Download on the App Store